Wind_Speed
17 17 17 17 16 16 16 16 16 15 15 14 14 14 14 14 15 16 16 16 16 15 15 15 15 15 16 16 16 15 14 14 13 15 15 16 19 24 26 26 26 25 26 26 26 25 23 22 17 12 10 10 10 11 14 18 14 6 4 5 8 13 7 3 1 2 7 9 9 10 10 12 12 11 12 12 12 14 15 12 9 10 14 18 19 18 20 22
17 18 18 17 17 17 17 17 16 15 15 15 15 14 14 14 14 15 15 16 16 16 15 15 15 15 16 15 15 15 13 13 13 12 12 15 19 22 22 23 23 23 24 24 24 24 22 22 19 14 11 11 14 14 14 19 17 9 6 10 10 9 6 3 1 1 5 7 10 10 10 11 11 10 12 14 13 14 15 13 12 15 19 20 19 17 19 20
18 18 18 18 18 18 18 17 16 16 15 15 15 15 14 14 14 14 14 15 15 16 16 15 14 14 15 15 15 15 12 11 11 11 11 13 16 19 21 21 21 21 23 23 22 22 19 17 16 14 12 13 15 14 14 17 16 11 6 8 8 7 7 7 4 2 6 7 9 10 10 10 10 10 12 14 13 13 15 14 15 18 21 21 17 17 19 18
19 19 19 19 19 19 18 18 17 17 16 16 16 15 15 14 14 14 13 14 14 15 15 15 14 13 13 14 14 13 10 7 7 12 11 8 12 15 18 19 19 20 21 22 22 20 15 13 13 13 14 15 15 14 14 14 13 11 8 4 4 8 7 4 4 4 7 8 9 9 10 10 9 9 10 14 11 12 15 13 16 20 21 19 15 17 17 17
19 19 19 19 19 19 19 19 18 18 17 16 16 16 16 16 15 14 14 14 13 13 13 14 13 12 12 13 13 11 8 3 1 10 11 6 9 12 16 17 18 19 20 22 24 21 16 15 16 16 17 17 15 15 16 15 13 11 13 13 8 8 5 4 4 5 7 8 9 9 10 10 9 8 9 12 10 10 14 14 16 19 20 15 14 17 16 16
19 20 20 20 20 20 20 20 19 19 18 18 17 17 17 16 16 16 15 14 14 13 13 13 12 11 11 12 13 11 9 5 4 10 14 10 9 10 14 16 17 19 21 22 24 23 19 18 18 18 19 18 17 17 17 16 15 11 13 16 10 7 5 2 4 6 6 8 9 8 9 10 9 8 10 11 7 8 13 14 17 19 19 15 13 17 17 16
20 20 20 20 20 20 21 20 20 19 19 19 18 18 17 17 17 17 16 16 15 14 13 13 12 11 10 12 13 13 14 11 8 13 18 16 11 10 13 15 17 19 21 23 25 24 21 20 20 20 19 18 17 17 17 17 18 16 14 14 10 7 4 2 6 7 6 8 10 10 8 9 10 9 10 10 6 9 14 15 18 19 19 16 13 16 17 16
20 20 20 20 21 21 21 21 21 20 20 20 19 19 18 18 18 17 17 17 16 16 15 13 13 11 11 12 13 14 13 8 11 18 21 19 13 10 12 15 17 19 21 22 24 24 21 21 21 20 19 19 17 16 15 15 15 15 14 12 11 8 5 5 8 7 7 9 10 10 10 10 10 9 10 10 9 12 15 16 18 18 18 17 14 14 16 16
20 20 19 20 20 21 21 22 22 21 21 20 20 19 18 18 18 18 18 18 17 17 16 15 14 13 12 13 14 14 7 4 13 22 22 20 14 10 12 14 17 19 20 21 23 23 22 21 22 21 20 19 17 17 16 14 15 15 14 13 11 10 8 8 9 8 8 10 11 11 12 10 9 10 10 12 12 12 14 17 18 17 19 20 17 15 15 16
20 20 19 19 19 20 21 22 22 22 22 22 21 20 19 19 18 18 19 18 19 18 18 17 16 15 15 14 16 14 6 4 12 18 19 18 13 10 11 14 17 19 20 21 22 24 24 22 20 19 20 20 18 18 18 17 17 15 14 14 13 13 12 10 11 12 10 10 12 12 14 11 10 11 11 15 15 12 15 18 18 18 20 21 18 17 16 15
20 20 20 19 19 20 20 21 22 22 22 22 22 21 20 19 19 19 19 19 20 19 19 19 18 18 17 17 18 13 9 7 7 12 17 17 13 9 10 12 15 18 20 22 23 23 25 23 19 17 19 20 19 18 19 20 19 17 15 13 13 14 14 15 15 13 11 11 13 14 14 12 12 11 11 16 15 14 17 19 19 17 18 20 18 17 17 16
20 21 21 20 20 20 20 20 21 21 22 22 22 22 21 21 20 20 19 19 20 20 20 20 20 20 20 22 17 9 10 12 10 13 14 17 16 10 10 12 14 17 20 21 22 21 22 22 19 18 19 17 18 18 17 17 19 21 21 16 14 15 16 17 15 13 12 13 13 15 15 14 14 11 11 16 14 16 19 19 19 18 18 20 18 16 16 17
21 21 21 21 21 20 20 20 20 21 21 22 22 22 22 21 22 21 20 20 20 20 21 21 22 22 24 23 14 9 15 16 16 16 13 16 19 14 12 13 16 18 20 21 19 17 19 20 20 20 20 18 19 19 14 11 14 20 21 16 13 17 18 16 14 14 13 13 15 17 16 15 16 12 12 16 15 18 20 19 20 20 20 20 17 16 16 16
21 21 21 21 21 21 21 20 20 20 21 21 21 22 21 21 22 22 22 21 21 21 21 22 23 24 27 22 13 14 17 16 18 17 14 17 20 17 14 14 16 19 21 23 21 17 16 17 19 20 21 22 20 19 18 15 14 17 18 15 15 17 16 14 14 14 13 14 16 17 15 14 16 13 14 17 16 19 20 20 21 21 21 21 20 17 15 17
21 21 20 21 21 21 21 21 20 20 20 21 21 21 21 21 22 22 23 22 23 22 22 23 24 25 28 23 17 16 16 17 17 16 16 17 19 17 15 14 15 19 20 23 24 22 18 16 19 21 22 23 23 21 20 19 18 17 18 18 18 17 14 12 15 15 14 16 17 18 14 13 16 15 14 17 17 19 20 20 21 22 22 22 22 18 16 18
21 21 20 20 21 21 21 21 20 20 20 20 20 20 20 21 21 22 23 23 24 23 23 24 24 24 25 23 18 14 13 16 15 15 16 14 15 13 11 13 14 17 20 20 22 23 22 18 18 22 22 22 24 23 19 18 19 19 19 19 18 19 15 11 14 17 16 16 17 19 14 11 16 18 16 18 19 19 21 22 21 22 22 22 23 20 18 19
21 21 21 21 21 22 22 21 21 20 20 21 20 19 20 21 20 22 23 23 24 24 24 25 26 26 23 19 20 16 13 15 14 13 13 10 11 10 9 13 14 15 17 17 19 21 22 20 19 21 22 23 25 24 21 20 18 18 20 19 18 20 16 11 13 17 18 16 16 19 16 9 13 17 19 21 20 20 21 22 22 22 22 23 23 21 20 20
21 21 21 22 21 22 23 21 21 20 20 21 21 19 19 21 21 21 22 23 24 24 25 24 26 27 16 10 16 15 10 14 13 10 12 9 10 12 12 14 14 14 16 16 19 20 20 21 21 21 23 26 27 26 26 23 18 17 20 19 18 20 17 13 12 16 20 19 16 19 18 12 11 13 18 23 21 20 22 22 23 23 23 24 24 23 21 20
22 21 21 21 21 22 23 22 22 21 20 20 21 20 19 22 22 21 23 24 23 24 22 20 24 26 14 2 8 7 3 10 15 12 12 10 8 12 15 15 14 15 17 18 20 21 21 22 24 25 28 29 30 30 29 25 21 20 19 19 19 18 15 14 15 16 19 20 19 18 18 16 14 13 17 22 22 21 22 22 23 23 24 25 25 25 24 22
23 22 21 21 21 22 23 23 22 22 21 19 21 20 19 23 21 20 26 26 22 22 20 21 26 27 22 13 4 5 4 9 16 13 12 13 9 10 13 15 16 17 20 20 19 21 22 24 28 31 31 29 29 31 29 26 25 23 21 21 22 19 15 15 19 19 19 20 21 19 18 17 17 16 18 20 21 23 24 23 24 24 24 26 26 25 26 24
24 23 23 22 21 22 23 23 22 23 23 21 21 19 20 24 21 21 28 28 23 23 23 23 28 30 25 21 15 12 10 13 18 15 15 16 12 11 14 17 19 21 23 21 19 20 23 28 32 32 30 28 28 30 29 27 27 27 25 23 22 19 17 17 19 21 21 20 20 19 19 19 19 18 18 20 21 23 25 25 24 25 25 26 27 26 26 25
26 24 24 23 22 23 22 22 22 23 23 22 21 20 21 24 22 23 28 30 25 24 25 22 25 31 26 21 23 21 18 18 20 19 19 19 16 16 17 19 22 23 22 22 22 22 27 33 32 29 28 28 28 29 31 31 29 28 28 26 24 19 18 18 18 20 22 20 19 19 20 20 21 20 19 22 24 23 24 25 25 25 26 26 27 27 26 25
27 26 24 23 22 23 23 22 22 22 22 23 22 21 22 23 23 25 27 31 28 22 25 25 23 27 25 22 23 25 27 26 23 21 20 20 19 19 18 20 23 23 23 25 27 27 28 31 29 26 27 28 30 31 31 32 32 30 29 27 25 20 18 19 20 20 21 19 17 17 20 19 19 22 22 23 24 23 23 24 24 24 25 26 27 27 27 26
28 27 26 24 22 22 23 22 21 22 22 23 22 22 22 22 22 25 26 32 33 23 18 21 23 26 25 21 20 25 31 30 27 25 22 21 21 20 21 21 22 23 25 26 28 30 28 24 23 26 28 29 32 33 32 32 33 33 31 28 25 21 20 20 19 16 17 18 16 16 18 19 20 21 23 25 24 22 22 23 24 25 25 25 26 27 27 27
29 28 27 26 23 22 23 22 19 21 22 21 23 22 20 21 21 23 25 29 34 27 17 19 23 24 21 19 22 25 28 29 31 28 25 25 23 21 22 21 22 25 26 26 27 31 30 23 20 25 29 30 31 34 35 33 31 32 33 31 28 24 20 20 19 16 18 19 19 18 16 16 21 22 23 27 26 23 24 25 25 25 26 27 27 27 28 28
29 29 27 27 25 22 22 22 19 19 20 21 22 20 18 19 18 20 23 23 31 30 21 21 21 19 18 20 23 23 23 28 32 29 26 27 27 24 22 22 23 25 24 25 26 29 30 26 24 25 28 31 32 34 36 34 32 31 32 32 31 29 23 21 23 21 22 21 20 21 18 14 18 22 23 23 23 25 27 26 26 26 26 27 27 28 28 28
29 29 28 26 27 24 20 21 20 18 20 22 20 17 16 16 15 16 17 14 19 19 12 18 17 17 18 18 21 25 23 22 26 30 29 29 28 26 25 23 23 24 22 22 26 27 26 27 28 27 27 31 35 36 35 35 35 31 28 28 29 32 28 24 24 22 23 21 19 22 23 19 19 21 22 23 24 26 28 28 27 27 27 27 27 28 29 29
29 30 29 26 27 27 22 20 20 18 20 21 18 16 15 13 12 10 8 6 6 3 8 16 16 19 17 16 24 30 23 12 16 28 27 28 30 28 29 28 24 23 22 23 27 25 23 27 30 29 28 31 35 36 34 34 37 32 26 25 27 29 29 27 26 25 26 23 19 21 22 18 18 20 19 22 28 28 28 29 29 28 28 28 28 27 28 28
29 30 30 26 26 28 25 22 21 17 18 19 16 16 14 11 8 5 4 7 8 7 11 13 15 18 17 20 25 29 24 15 14 20 21 27 32 29 29 29 26 24 23 25 27 24 22 25 28 29 31 32 32 32 32 34 35 32 27 26 26 26 29 30 27 29 29 22 17 21 21 16 15 21 21 21 28 32 30 30 30 30 29 29 30 28 27 28
29 29 30 28 26 26 25 24 23 19 17 17 15 14 13 10 8 7 8 10 10 9 12 15 15 14 16 23 26 26 26 22 15 14 19 27 31 29 27 25 25 25 24 26 28 27 24 22 25 30 32 29 27 28 31 34 33 30 29 28 27 27 31 33 30 30 25 16 17 24 26 21 15 20 26 25 27 30 30 31 31 31 31 30 31 30 29 31
28 28 30 29 27 26 24 24 25 20 16 15 13 12 13 12 11 11 11 11 11 10 10 14 15 16 19 24 26 26 27 24 19 19 24 28 29 29 27 24 25 26 26 27 28 28 28 26 25 29 30 28 26 27 29 31 32 32 31 29 26 27 30 29 28 27 17 11 21 27 27 27 20 20 26 27 27 28 27 30 32 33 33 32 33 32 31 30
27 27 28 28 28 26 22 23 24 20 16 14 12 14 14 11 16 21 16 8 9 12 15 14 14 20 23 24 25 26 29 27 23 23 26 29 30 32 33 30 28 27 26 27 27 27 30 32 28 24 27 30 28 27 27 29 33 36 33 30 25 20 19 17 16 16 14 15 25 28 27 27 26 27 28 26 27 29 28 29 29 31 33 34 36 33 28 26
26 27 26 27 28 25 22 23 22 19 17 13 13 17 15 11 18 27 25 17 9 6 9 12 15 19 22 25 26 25 29 30 27 26 26 28 29 31 34 33 30 27 25 24 25 26 26 30 32 27 25 29 31 30 31 31 33 35 34 33 26 15 9 10 10 12 14 19 26 29 26 25 26 29 29 28 26 25 28 29 27 28 31 33 35 31 26 24
26 26 25 24 27 25 22 22 22 20 17 14 16 19 19 21 23 21 24 27 22 13 9 8 11 18 22 25 26 25 29 30 29 28 27 28 30 30 32 34 32 29 25 23 24 25 22 22 31 33 27 28 33 35 32 29 30 32 34 33 31 23 14 11 11 11 13 17 24 27 23 22 25 24 25 28 28 25 25 28 27 29 31 30 31 29 27 25
26 26 25 23 24 25 23 22 21 19 17 17 20 22 28 32 26 19 21 24 24 24 22 17 14 17 23 25 25 27 28 28 30 31 30 31 32 31 32 34 36 34 29 25 23 24 25 23 26 32 29 27 32 35 31 26 27 31 34 36 37 34 27 20 18 20 19 16 20 24 23 24 26 22 19 23 27 28 27 25 25 28 29 29 31 31 30 28
28 27 25 22 22 23 22 22 21 20 19 19 23 30 39 36 23 18 18 17 19 22 23 24 23 22 24 25 27 28 30 28 29 32 33 34 34 33 32 33 36 37 34 29 23 21 24 23 23 27 31 31 30 31 32 31 28 27 33 40 39 35 33 27 22 25 24 14 15 23 24 25 25 23 23 22 21 26 28 26 25 25 25 27 33 34 31 31
29 27 23 19 21 21 19 20 20 19 21 22 29 38 40 34 26 23 19 16 17 19 21 24 26 26 26 26 27 29 31 30 30 31 32 33 34 35 34 32 33 38 38 32 26 23 21 20 22 26 31 32 30 27 31 35 33 28 31 36 35 32 33 30 20 18 18 11 14 24 26 23 21 20 23 24 22 23 26 28 28 27 26 25 29 34 34 32
30 29 20 14 18 17 16 21 21 20 21 25 36 43 37 30 28 26 25 23 21 20 23 26 24 25 28 28 28 28 30 31 32 32 31 31 32 34 35 34 31 36 39 35 30 25 21 20 20 24 28 30 30 28 29 35 40 38 31 28 31 30 30 31 23 14 13 9 10 20 24 24 25 24 23 25 26 25 25 28 29 30 29 26 27 34 35 31
30 28 17 7 9 9 11 18 19 20 23 29 37 40 35 33 31 26 25 27 27 26 27 28 25 25 27 28 28 28 30 33 33 33 32 30 29 29 33 35 32 33 37 38 35 29 23 19 19 21 25 27 32 34 34 36 39 41 36 29 32 32 29 31 29 21 15 9 9 17 19 20 27 29 26 26 29 29 28 27 28 29 30 28 28 31 33 31
27 25 17 6 6 11 12 12 15 20 26 32 36 33 29 29 29 27 25 27 30 29 26 26 26 26 28 27 28 29 30 32 35 35 33 30 28 27 30 33 33 32 33 36 37 33 27 22 19 19 23 28 34 38 37 34 32 37 40 36 33 32 29 29 30 31 25 12 8 11 13 20 27 27 26 26 26 28 29 27 27 29 30 30 28 28 31 34
24 23 15 4 4 16 16 14 17 22 27 32 34 33 30 28 26 27 25 26 31 33 30 28 27 28 29 28 28 29 30 31 33 35 34 33 31 28 28 31 32 31 32 35 38 36 31 24 21 21 25 31 35 35 34 32 29 32 38 41 37 32 30 23 19 31 34 23 16 12 10 20 27 23 24 25 21 23 27 27 30 32 30 32 32 30 33 36
23 23 13 4 11 16 15 18 23 24 28 32 31 30 29 29 30 29 27 27 30 33 34 34 32 30 29 30 30 29 29 31 32 34 34 34 34 30 26 27 29 31 32 34 37 36 32 26 24 25 27 28 28 30 32 31 31 31 33 39 40 35 33 26 17 24 33 30 30 24 16 20 25 22 23 24 21 22 24 25 29 31 29 29 31 31 34 37
24 26 21 13 19 20 18 23 26 26 29 31 30 31 30 29 30 29 28 29 30 31 32 33 35 33 30 30 30 29 29 30 32 35 33 32 35 34 30 27 29 31 32 32 33 35 33 30 26 25 25 27 26 29 32 31 31 34 33 37 41 41 41 35 25 26 29 29 29 22 15 21 26 23 22 22 21 21 23 23 24 28 30 29 31 33 32 31
25 28 25 15 17 24 26 28 28 27 28 29 30 32 32 32 33 32 30 30 29 29 31 32 33 34 33 32 31 30 28 26 29 32 33 33 34 34 33 32 30 31 32 31 30 33 34 33 30 22 17 20 23 25 31 33 33 34 34 34 37 41 43 39 33 29 26 30 31 20 13 24 30 26 24 22 20 21 23 24 21 23 25 25 29 33 27 23
25 26 25 15 10 20 27 29 28 28 27 28 30 31 29 29 30 31 32 33 33 31 31 32 30 30 32 33 35 35 32 28 27 26 28 31 31 30 33 34 33 32 32 30 29 32 33 34 34 26 15 14 16 18 25 32 33 32 33 34 34 36 40 41 40 33 23 26 35 31 23 24 27 29 28 24 21 20 22 25 24 21 21 22 23 26 24 20
21 22 22 17 9 15 24 26 27 29 29 28 29 31 30 27 25 26 24 25 30 34 35 34 32 31 30 28 31 36 37 35 30 27 27 28 27 29 32 32 32 33 33 31 29 30 32 33 37 37 29 21 21 22 22 26 30 32 33 34 35 35 37 39 39 38 31 25 28 34 34 28 24 27 30 29 27 23 20 24 27 24 22 24 23 22 21 20
18 19 17 15 12 14 20 22 23 27 30 29 30 32 33 32 32 32 25 17 17 20 27 34 34 32 33 31 28 31 35 37 36 33 31 29 27 28 32 32 31 32 36 34 26 23 27 31 35 40 39 31 26 25 25 25 28 31 32 34 35 34 36 38 37 39 39 30 25 28 32 32 31 28 26 28 33 31 23 22 27 28 25 25 27 26 24 24
17 18 14 13 16 17 19 20 20 22 25 26 29 32 37 39 38 36 31 25 22 16 16 26 31 22 23 27 24 24 27 30 35 37 35 33 30 27 30 33 32 34 38 38 30 20 20 27 30 33 37 38 33 28 27 27 27 29 30 32 34 34 35 38 39 39 39 34 31 32 29 31 37 34 27 25 28 31 28 22 22 27 26 23 26 32 33 31
17 19 17 16 19 22 22 23 23 25 25 25 26 29 34 39 40 39 33 28 28 21 13 16 24 19 16 16 11 12 17 17 19 27 31 33 33 30 29 32 34 34 34 34 33 25 20 24 27 27 30 35 37 34 32 30 28 30 30 29 31 33 34 37 37 37 37 36 38 38 31 29 33 35 35 33 27 24 27 26 23 25 28 24 22 30 34 31
18 19 20 20 22 23 23 22 23 25 26 25 25 26 28 32 36 39 39 33 31 26 18 17 22 24 22 18 10 10 16 15 11 14 17 21 27 31 30 31 35 36 33 33 33 29 25 23 23 25 27 28 33 36 36 34 32 31 31 30 30 31 33 36 37 36 36 37 39 40 36 32 31 31 33 37 36 30 26 28 27 28 32 31 25 25 27 25
19 20 22 25 27 25 22 21 20 22 24 24 23 23 23 26 28 31 37 38 34 32 27 22 22 26 27 24 18 16 18 15 15 17 16 16 23 30 27 26 31 35 34 37 35 32 29 25 21 25 26 26 29 31 34 37 35 33 34 34 34 34 32 32 34 34 34 34 34 36 37 37 36 34 32 33 39 40 34 31 31 30 32 34 32 30 28 24
19 20 21 24 28 26 23 22 20 20 23 21 20 21 21 23 23 23 29 35 32 30 26 20 22 28 29 28 25 20 20 20 19 22 21 18 20 25 21 18 27 34 33 36 38 34 32 29 27 27 26 27 27 25 28 31 29 32 39 38 35 35 32 28 28 29 33 35 34 33 33 32 30 32 34 34 36 39 39 38 38 36 33 32 34 36 36 33
Wind_Direction
278 279 280 281 281 281 282 283 284 285 287 290 292 293 291 287 283 280 278 276 277 277 280 284 285 288 288 288 286 282 284 287 281 268 248 227 224 233 237 237 239 242 246 248 251 253 255 259 259 262 269 259 244 239 253 266 277 294 290 300 301 293 313 58 40 92 131 131 139 143 139 142 140 141 141 137 137 139 142 142 138 138 142 152 169 176 170 172
278 278 279 280 280 281 281 281 283 283 285 286 288 290 290 289 286 283 281 280 279 278 280 282 285 288 290 292 290 287 287 288 289 277 252 229 225 230 234 235 234 235 238 241 245 249 252 256 255 255 250 232 231 232 238 249 262 264 261 296 296 287 293 254 262 132 150 141 145 148 146 146 145 147 145 142 142 146 148 143 140 139 147 166 180 178 173 173
277 278 278 279 279 279 279 279 280 281 283 284 285 286 288 289 288 287 285 283 282 281 281 283 286 287 290 293 294 294 288 290 298 283 256 235 229 229 231 231 230 230 232 234 237 242 245 249 253 251 237 229 233 229 228 237 254 259 254 290 285 281 274 217 207 179 161 151 151 156 153 148 150 150 145 149 147 154 159 150 150 150 159 177 181 176 173 171
277 277 277 277 277 277 278 278 278 278 280 281 282 283 284 286 286 288 287 286 286 285 285 285 286 286 289 290 294 297 293 313 307 277 268 242 233 229 228 227 225 226 227 228 228 231 230 221 225 233 227 230 236 230 223 216 228 237 217 238 315 302 282 185 189 186 161 159 157 159 160 152 154 156 152 157 151 160 170 161 161 163 171 179 172 173 174 170
276 276 275 275 276 276 276 276 276 276 277 277 279 280 282 283 283 285 286 287 287 288 290 289 289 287 285 284 290 292 290 353 33 271 276 261 249 237 227 223 221 222 221 224 223 219 213 209 212 221 225 229 235 230 222 212 219 228 220 238 286 283 248 112 123 170 159 160 158 162 170 158 156 162 159 163 158 164 171 166 168 169 176 180 166 169 173 174
279 277 275 275 274 275 275 275 274 274 274 274 275 277 279 280 281 283 284 285 286 288 290 291 293 289 285 280 281 282 267 231 196 274 281 272 265 247 230 220 216 219 218 219 221 215 207 209 211 217 224 228 235 232 225 218 216 224 233 246 268 256 240 103 147 183 173 171 169 167 169 161 161 162 160 166 163 167 167 164 171 172 179 187 171 166 170 176
282 280 278 277 275 274 274 274 274 273 273 273 273 274 276 278 279 280 281 283 284 285 286 288 290 288 288 279 274 276 266 249 247 274 280 278 271 250 235 220 212 214 217 218 218 214 208 209 211 216 223 225 233 235 239 238 221 218 227 241 252 237 245 223 194 198 188 184 179 172 169 169 170 164 163 165 153 164 164 163 172 173 181 190 176 167 170 173
283 281 280 279 278 276 275 275 274 274 273 272 272 271 272 274 276 278 279 280 282 282 283 283 285 286 285 280 278 273 272 290 289 280 278 280 276 256 238 220 211 211 216 218 216 213 208 212 212 214 223 227 231 232 241 252 238 228 224 232 245 232 228 228 215 209 197 190 185 183 180 175 174 170 171 168 148 155 162 163 174 177 179 183 176 171 171 172
285 283 281 280 279 278 277 276 275 275 274 272 271 270 270 271 272 275 276 278 279 280 281 280 281 281 278 277 279 275 282 327 284 279 281 280 275 260 240 221 210 208 214 216 214 209 205 214 215 214 224 230 234 234 236 241 238 239 232 227 237 236 229 229 227 219 208 195 189 189 182 177 177 173 175 172 155 152 161 167 176 178 176 178 176 175 174 174
287 285 283 281 280 279 277 277 276 275 275 274 273 272 270 269 269 270 272 275 276 277 278 278 279 277 275 274 272 274 273 249 267 281 289 284 275 257 242 226 210 205 211 214 213 208 204 211 216 218 229 235 238 240 240 238 239 246 241 225 229 240 231 232 237 223 214 205 196 192 184 180 178 177 178 174 166 160 162 168 177 176 174 179 179 177 178 176
289 288 286 285 281 279 278 277 277 276 275 274 274 273 272 270 269 267 268 270 272 275 276 276 277 274 274 269 266 272 265 245 259 273 281 290 284 258 241 228 213 205 207 211 213 212 208 207 210 219 230 237 239 241 242 243 249 251 244 230 229 243 236 237 245 231 216 208 200 193 186 182 183 188 180 174 172 169 166 167 177 177 174 182 183 181 182 179
293 290 288 286 284 282 280 278 277 276 275 274 273 273 272 271 270 268 266 266 268 270 273 274 275 274 273 268 266 276 261 247 242 243 262 285 286 270 245 225 213 209 205 209 213 214 214 209 208 219 225 232 235 239 245 247 251 249 253 253 236 232 234 236 240 233 223 212 200 192 188 186 189 194 183 178 174 169 170 170 176 178 176 181 186 185 184 184
296 293 291 289 287 285 282 281 279 277 276 275 274 273 272 271 270 269 267 265 266 266 269 271 272 273 272 270 270 269 260 253 250 247 248 261 269 274 259 231 215 211 205 204 209 214 220 215 213 221 224 230 232 233 241 249 250 249 257 267 250 232 224 225 228 227 226 212 195 191 191 190 191 192 182 181 175 172 174 174 176 177 177 181 184 187 187 189
296 295 293 292 290 288 286 284 282 280 279 277 276 275 273 271 269 268 267 266 265 264 266 268 270 272 271 271 275 267 261 257 253 256 253 250 259 266 259 242 222 213 208 204 203 206 219 224 222 223 225 229 231 237 248 253 252 249 247 244 248 250 231 216 223 224 220 202 189 192 198 197 194 190 186 182 176 178 180 178 179 178 179 183 186 193 193 192
293 294 293 293 292 290 289 287 285 283 282 281 280 278 276 273 271 269 267 265 264 264 264 265 267 271 273 277 275 261 256 258 256 258 259 253 257 258 248 246 231 216 212 209 205 201 205 218 225 226 226 227 230 242 252 251 244 239 240 233 230 243 240 220 220 222 212 191 186 198 200 197 195 188 188 187 180 183 185 183 183 182 183 184 187 198 201 196
291 291 291 291 290 290 289 288 287 285 284 283 281 282 280 276 273 271 268 265 264 263 263 265 266 267 273 280 278 264 256 260 260 260 259 250 250 252 239 240 239 224 214 210 211 207 203 209 221 227 226 224 227 236 246 249 241 228 231 237 227 227 229 216 214 215 206 187 188 203 203 201 202 197 197 194 187 186 189 188 186 187 188 189 191 198 205 201
290 289 290 289 289 289 288 288 287 286 286 285 284 283 282 280 276 272 270 267 265 264 262 263 264 266 268 274 274 275 271 263 262 259 256 239 227 233 233 235 236 228 219 212 215 213 209 211 217 222 223 222 223 226 231 236 237 225 222 233 237 233 222 207 213 208 200 194 194 204 208 205 198 196 199 196 191 190 191 191 191 191 191 194 197 199 206 206
289 288 288 287 288 287 287 287 287 287 287 287 286 284 283 283 279 275 273 269 265 262 260 260 262 265 270 287 282 276 272 264 260 244 236 233 213 206 211 226 228 219 215 216 218 214 210 214 217 219 220 219 218 218 221 224 226 225 218 221 237 241 224 204 210 202 198 203 201 204 208 204 197 197 198 194 193 195 194 194 194 194 194 197 200 200 207 212
289 288 286 286 285 285 286 286 287 287 287 287 287 287 286 282 280 282 276 267 264 261 261 261 257 253 242 278 315 286 255 250 243 223 217 230 224 209 204 212 217 208 207 213 218 212 206 210 213 216 217 214 215 215 218 222 226 231 226 219 227 236 227 211 213 206 202 209 207 207 207 203 206 203 195 193 196 200 198 198 198 196 197 200 203 202 207 215
291 290 288 287 284 284 283 284 287 287 287 288 287 290 288 281 281 282 275 270 269 264 257 251 253 250 230 211 242 269 249 235 231 216 206 218 226 227 215 207 207 207 208 208 213 210 205 210 213 215 215 212 214 216 219 225 228 237 241 235 232 232 230 226 223 212 206 213 211 210 212 204 200 196 194 198 202 202 201 200 200 200 200 201 206 207 209 217
292 291 291 289 287 285 282 283 285 284 287 287 286 289 286 283 283 279 277 278 274 268 261 248 250 257 242 219 215 230 245 248 244 229 211 219 226 231 225 211 205 210 211 207 210 211 209 217 219 217 217 215 216 217 221 225 228 235 243 247 244 234 230 233 227 209 202 214 215 212 215 206 200 200 201 205 206 204 204 203 202 203 205 205 209 211 212 216
291 291 290 290 289 287 284 283 282 282 285 284 285 286 282 283 285 281 282 280 271 267 268 256 245 254 254 233 214 211 222 234 242 239 227 226 227 226 223 214 209 212 212 208 209 211 213 222 223 219 219 218 218 218 220 225 228 234 239 246 250 241 231 232 228 209 198 209 217 215 215 212 209 208 207 209 209 208 207 206 207 206 208 209 211 213 214 215
289 289 289 289 289 287 286 284 283 284 283 283 282 281 280 282 284 283 285 283 275 266 264 261 252 252 254 244 221 212 223 226 225 233 233 228 224 222 219 215 215 215 213 211 211 212 216 224 224 220 220 218 218 219 219 223 228 232 235 240 248 250 240 235 232 216 198 204 219 218 217 223 216 209 211 211 209 210 209 209 210 210 211 212 212 214 215 216
288 288 287 287 287 288 286 284 285 283 281 282 280 278 280 281 284 285 284 285 281 270 266 265 257 251 249 244 227 218 227 229 224 224 225 224 221 219 219 217 218 220 217 215 216 219 224 226 223 220 220 219 218 219 218 221 225 229 233 235 240 245 241 239 235 211 195 205 219 222 225 229 222 214 210 205 207 213 212 210 210 210 211 211 211 216 221 220
286 285 285 285 286 286 286 285 284 282 281 280 278 279 282 282 287 288 290 294 286 278 278 267 254 252 249 235 224 222 226 230 229 224 218 221 218 213 217 218 219 223 222 220 220 226 230 228 221 218 219 219 219 219 218 219 223 226 230 233 237 239 236 238 235 207 195 207 213 218 230 231 225 224 214 207 214 219 214 212 212 210 211 210 210 215 221 223
282 281 281 282 282 283 286 285 281 281 279 275 276 281 282 285 289 291 299 302 292 289 280 261 256 252 240 226 217 213 221 233 234 226 217 219 218 211 214 218 221 225 224 223 226 230 231 227 222 219 218 219 220 221 219 218 223 226 226 229 235 242 243 242 240 217 201 211 215 218 230 233 225 225 220 216 217 215 215 215 211 211 211 210 210 211 217 222
279 279 277 278 279 277 280 284 280 277 275 274 278 281 279 284 287 296 310 301 294 301 260 235 244 241 233 229 212 197 209 232 233 227 216 212 215 212 214 218 220 225 223 222 229 229 227 224 222 221 218 219 219 221 219 216 222 227 225 225 229 238 245 247 243 225 208 216 221 218 225 233 232 226 220 221 219 214 216 215 210 213 214 212 212 211 213 220
276 276 274 274 277 275 273 277 278 273 273 275 277 275 273 276 278 292 314 286 283 315 210 217 226 227 218 207 207 204 208 217 218 226 219 207 211 211 215 219 218 224 222 220 229 229 224 223 222 220 219 220 220 220 218 217 222 227 226 227 227 230 239 245 247 240 227 221 216 213 219 230 236 230 222 222 223 222 220 216 214 215 216 216 215 212 212 217
275 274 273 270 271 275 272 272 275 272 271 272 269 268 264 262 264 263 268 256 250 245 238 228 220 224 208 190 207 215 215 211 215 229 216 203 210 210 214 219 218 226 226 224 233 232 226 225 222 222 221 221 222 221 220 220 223 225 226 231 232 230 232 234 242 251 247 234 224 221 218 227 241 235 229 223 221 223 222 221 219 215 216 220 218 215 214 215
276 274 273 269 266 269 271 271 273 271 269 266 261 260 252 239 231 228 232 237 252 266 244 223 216 222 201 192 209 217 213 211 212 213 197 197 210 212 214 220 221 228 231 228 234 236 235 231 222 224 224 223 225 223 221 222 223 224 225 229 234 237 234 227 228 242 250 248 244 237 223 221 237 238 232 228 224 223 221 219 217 214 215 219 220 220 218 219
278 274 272 271 265 263 267 271 270 269 268 261 252 244 235 226 217 221 232 235 252 260 222 212 217 214 201 199 210 213 208 209 208 195 188 192 203 207 209 213 216 224 232 230 231 233 237 235 224 223 225 224 224 225 223 221 222 222 223 225 229 236 240 236 233 235 239 247 246 243 231 224 229 234 232 231 229 226 223 220 218 216 216 219 224 227 225 226
282 276 272 271 267 261 261 265 266 266 264 253 237 224 216 220 224 222 226 238 257 246 221 215 215 208 206 207 211 209 204 206 205 196 191 193 198 203 205 206 205 210 221 226 226 227 230 233 229 224 223 222 221 221 220 219 219 219 219 221 223 227 233 239 245 238 229 232 236 237 237 235 233 233 233 234 229 225 225 224 221 218 212 215 225 231 234 235
289 281 274 271 270 264 256 259 263 261 257 245 224 213 204 220 232 222 220 224 232 245 225 223 222 213 209 210 212 209 204 205 204 200 199 199 202 207 209 209 205 206 213 217 219 222 225 229 229 226 221 218 217 215 214 215 215 214 214 214 217 220 218 222 236 240 230 230 237 239 239 243 242 234 232 233 230 227 225 223 224 218 208 215 230 234 234 228
293 287 281 273 271 269 257 253 257 255 252 238 216 205 206 227 234 222 221 226 229 244 252 246 238 223 214 214 215 209 204 207 207 205 204 204 208 211 210 211 210 210 214 217 218 220 222 223 223 223 219 214 215 214 213 214 212 212 213 215 221 222 220 222 225 233 238 238 243 242 236 239 245 236 228 228 228 229 228 224 224 220 215 224 237 236 230 226
295 290 287 279 272 270 262 252 250 249 246 228 210 206 217 228 231 227 230 230 231 241 248 254 254 237 224 219 218 214 209 209 208 209 210 209 212 213 211 211 211 210 213 218 219 218 225 230 222 220 220 216 215 215 213 214 215 214 214 218 224 222 222 233 237 234 236 238 240 242 238 236 241 242 233 226 226 226 226 226 225 220 217 224 229 232 234 237
296 292 292 290 277 270 264 253 245 244 242 224 212 219 226 229 229 231 236 237 237 242 247 250 247 240 234 225 220 218 217 215 209 209 214 214 216 218 216 214 212 210 211 214 216 215 223 232 224 218 221 218 216 214 210 212 215 212 212 218 222 221 223 233 242 238 235 237 237 240 242 235 232 240 235 224 224 224 222 223 222 219 218 220 224 229 234 238
298 294 296 296 281 270 260 253 244 240 239 224 221 229 232 233 235 236 237 240 245 247 249 249 241 235 236 231 223 218 217 218 213 212 216 216 218 221 219 217 214 212 211 213 219 221 225 233 225 216 218 217 214 214 213 214 217 215 214 216 218 220 224 228 237 238 229 235 238 236 241 239 232 235 229 223 224 224 221 220 219 219 218 218 223 226 229 232
302 300 307 309 293 278 253 248 246 240 237 228 230 237 238 239 240 238 238 245 256 261 255 251 243 236 235 233 228 220 215 217 215 217 219 218 221 221 217 219 217 213 213 214 221 225 228 238 232 217 217 214 207 210 216 216 218 222 220 214 211 215 219 220 228 239 230 231 238 235 239 239 236 236 228 225 225 218 213 214 216 220 218 217 223 224 224 223
305 307 312 312 304 291 242 240 242 237 234 232 237 242 244 244 242 234 231 238 251 263 260 254 248 242 238 234 231 226 220 219 219 221 221 220 223 221 216 217 218 214 212 212 219 224 223 233 236 221 213 207 201 205 214 215 214 220 227 225 217 217 219 218 223 232 233 232 234 234 236 233 234 236 230 227 225 216 209 209 214 221 222 221 224 227 225 217
306 305 307 300 276 270 250 237 234 234 235 236 241 246 249 253 252 243 234 233 241 252 257 255 249 247 246 240 234 231 227 224 223 223 223 222 224 222 217 216 215 215 211 209 215 222 223 227 235 224 206 201 203 206 211 214 209 211 222 227 222 217 219 223 226 227 227 234 238 233 237 235 233 234 233 231 226 215 213 218 220 224 229 226 223 229 224 212
303 299 309 16 243 257 260 255 245 241 242 244 247 250 252 255 259 255 248 243 246 249 253 256 253 250 249 246 239 235 234 232 227 225 223 222 224 224 218 215 214 212 210 209 210 215 220 221 226 225 210 204 210 211 211 214 213 210 215 221 222 216 212 217 227 225 224 228 234 239 244 236 233 233 235 237 231 216 216 226 226 223 230 230 223 224 219 215
297 287 283 181 202 235 251 257 254 249 248 250 251 255 257 257 257 257 254 251 251 251 252 254 253 253 252 249 245 240 239 239 234 229 225 221 223 225 219 214 214 212 210 211 210 210 216 219 221 225 223 217 216 215 214 214 215 217 217 217 221 220 215 214 218 221 222 224 227 234 246 238 233 234 234 237 235 222 218 228 228 220 224 226 218 222 229 229
294 285 280 250 229 236 248 253 254 252 251 254 256 256 257 258 259 258 255 253 251 250 251 250 249 249 250 249 250 248 248 247 241 236 232 226 223 224 222 218 217 215 213 214 211 207 211 219 221 221 227 233 230 219 216 215 215 219 221 217 218 220 221 222 223 221 224 227 224 225 237 235 232 233 232 233 236 229 223 226 225 221 224 223 216 223 234 227
298 294 296 284 240 237 246 251 255 256 255 257 259 258 257 257 257 257 256 253 250 249 249 248 248 247 246 247 250 252 253 253 248 241 236 236 231 222 220 221 219 216 215 213 210 205 207 215 219 216 217 231 235 220 210 211 214 218 222 221 219 220 223 227 232 230 226 228 227 228 236 229 225 229 231 230 233 233 228 223 220 222 225 220 214 221 224 209
303 302 304 302 243 233 244 248 253 258 260 261 261 259 260 259 254 253 256 254 250 249 249 248 247 246 246 247 247 248 250 251 252 247 243 247 244 226 219 220 216 212 215 215 210 207 208 210 213 217 213 210 222 217 203 206 213 217 221 224 222 221 222 224 231 236 234 225 224 230 243 235 221 220 226 228 228 228 223 219 220 223 221 214 212 218 218 211
299 299 301 305 283 249 252 253 253 255 258 262 262 258 258 262 254 243 251 260 251 248 251 250 248 246 245 246 245 246 248 248 250 252 250 252 248 229 221 221 214 209 213 215 207 205 212 213 211 217 222 217 217 219 211 207 212 217 218 221 224 224 222 222 224 231 236 234 228 230 238 244 235 222 221 224 226 225 219 216 221 226 221 214 217 222 223 221
288 289 294 300 290 258 249 252 253 254 256 258 261 260 256 260 257 243 243 260 261 262 259 244 238 243 242 242 248 249 247 247 246 249 251 253 250 236 226 224 218 211 215 223 219 209 219 223 216 216 222 225 223 220 218 216 216 219 219 220 223 225 225 225 224 226 230 235 241 237 233 241 246 236 225 223 223 226 222 213 220 229 223 211 218 227 227 223
274 279 280 280 280 268 254 255 261 266 268 265 266 264 256 255 257 251 248 252 256 281 284 239 230 241 243 242 253 258 254 249 244 243 245 247 248 244 233 226 221 212 211 222 231 228 231 231 222 218 220 223 227 225 224 225 222 223 225 224 223 224 226 228 228 227 228 230 238 240 232 235 241 239 237 233 227 227 227 219 219 226 221 213 223 230 227 227
268 273 271 266 270 269 263 264 267 271 274 273 270 268 263 259 256 253 257 265 264 273 300 265 246 246 243 242 253 271 277 280 264 250 245 244 245 244 238 229 223 214 206 214 227 230 234 232 224 224 224 221 225 229 230 233 230 225 227 228 226 224 225 229 232 231 230 231 237 241 238 235 234 236 241 242 233 225 226 226 220 217 219 225 232 230 224 228
271 270 271 268 263 263 264 268 273 274 275 275 271 270 272 269 263 255 255 265 272 273 289 297 270 247 240 246 259 297 308 311 289 253 242 245 242 237 240 236 226 219 213 216 224 225 229 234 226 226 232 227 223 226 228 233 237 234 232 231 232 230 226 226 230 232 232 232 235 238 242 242 238 237 241 243 239 232 228 229 225 221 226 233 234 227 221 226
272 268 272 274 267 263 267 270 274 276 274 274 272 270 270 271 272 268 258 256 264 270 278 295 283 255 245 251 263 289 300 285 250 228 222 235 232 225 238 248 234 225 218 215 221 222 223 233 230 224 233 233 226 226 226 228 235 242 241 233 230 232 233 228 225 227 232 236 238 237 239 242 241 238 239 242 242 240 239 236 231 229 231 233 232 227 225 229
274 271 272 275 269 264 268 271 273 273 272 272 273 272 273 273 274 276 270 264 261 263 270 283 280 265 258 263 269 277 280 270 251 238 233 241 241 227 227 236 233 232 226 214 216 220 221 227 229 223 228 232 229 229 227 224 228 236 236 234 231 231 235 234 229 227 227 230 237 240 239 240 240 237 236 239 239 240 243 240 236 237 236 231 229 229 232 236
Height
3166 3166 3165 3164 3163 3162 3162 3161 3160 3160 3159 3158 3157 3157 3156 3155 3154 3154 3153 3153 3153 3152 3152 3151 3150 3149 3148 3147 3146 3146 3145 3144 3144 3143 3144 3147 3147 3146 3149 3153 3155 3158 3159 3161 3162 3163 3165 3166 3168 3170 3171 3170 3171 3173 3174 3172 3172 3174 3174 3172 3169 3169 3168 3168 3169 3168 3168 3168 3169 3169 3170 3170 3171 3171 3171 3171 3172 3172 3173 3174 3174 3175 3175 3176 3175 3174 3176 3177
3165 3164 3163 3163 3162 3161 3160 3159 3159 3158 3158 3157 3156 3156 3155 3154 3153 3153 3152 3151 3151 3151 3150 3150 3149 3148 3147 3146 3145 3144 3144 3142 3142 3141 3142 3143 3144 3146 3148 3150 3153 3155 3157 3159 3161 3162 3163 3164 3167 3169 3170 3171 3172 3174 3174 3171 3171 3174 3174 3172 3170 3170 3168 3168 3169 3169 3169 3169 3169 3170 3170 3170 3171 3171 3170 3172 3172 3173 3174 3174 3175 3175 3175 3175 3174 3175 3177 3178
3163 3162 3161 3161 3160 3159 3159 3158 3158 3157 3157 3156 3155 3154 3154 3153 3152 3152 3151 3150 3150 3149 3149 3148 3148 3147 3146 3145 3144 3143 3142 3141 3140 3138 3140 3142 3143 3144 3146 3148 3150 3153 3155 3157 3159 3161 3163 3164 3166 3168 3169 3171 3172 3173 3174 3171 3170 3172 3173 3172 3172 3170 3167 3166 3167 3169 3169 3169 3169 3170 3170 3170 3171 3170 3170 3172 3172 3173 3174 3174 3175 3174 3174 3173 3174 3176 3177 3179
3161 3160 3159 3159 3158 3157 3157 3156 3156 3156 3155 3155 3154 3153 3153 3152 3151 3151 3150 3149 3149 3148 3147 3147 3146 3146 3145 3144 3143 3142 3141 3141 3138 3136 3138 3141 3142 3143 3144 3146 3148 3150 3153 3155 3157 3160 3162 3165 3167 3169 3170 3171 3171 3172 3173 3172 3170 3170 3171 3171 3172 3171 3168 3165 3166 3169 3169 3169 3169 3170 3170 3170 3171 3171 3171 3172 3172 3173 3173 3173 3174 3173 3172 3173 3174 3175 3177 3179
3159 3158 3157 3157 3156 3155 3155 3154 3154 3154 3154 3153 3153 3152 3151 3151 3150 3150 3149 3148 3148 3147 3146 3146 3145 3145 3144 3143 3142 3141 3141 3141 3138 3135 3137 3139 3140 3142 3143 3145 3146 3148 3151 3153 3155 3158 3161 3164 3167 3169 3170 3170 3171 3171 3171 3171 3171 3170 3170 3169 3171 3171 3169 3165 3164 3168 3169 3169 3169 3170 3170 3170 3171 3171 3171 3172 3172 3173 3173 3173 3174 3173 3172 3173 3174 3175 3177 3179
3156 3156 3155 3155 3154 3154 3153 3153 3152 3152 3152 3151 3151 3150 3150 3149 3149 3148 3148 3147 3147 3146 3145 3144 3144 3143 3143 3142 3141 3140 3140 3139 3138 3136 3136 3138 3139 3140 3141 3143 3145 3147 3148 3150 3153 3155 3159 3162 3165 3167 3169 3169 3169 3168 3168 3169 3170 3170 3169 3169 3169 3169 3169 3165 3164 3168 3169 3168 3169 3169 3170 3169 3171 3171 3172 3172 3172 3173 3173 3173 3173 3173 3173 3173 3174 3176 3177 3179
3154 3153 3152 3152 3152 3151 3151 3150 3150 3150 3150 3150 3149 3149 3149 3148 3148 3147 3146 3146 3146 3145 3144 3144 3143 3142 3142 3140 3139 3139 3138 3138 3137 3136 3135 3136 3138 3139 3140 3141 3143 3145 3146 3148 3151 3153 3157 3160 3163 3165 3167 3167 3168 3167 3166 3166 3167 3166 3165 3166 3169 3168 3167 3165 3165 3168 3168 3168 3169 3169 3169 3169 3170 3171 3172 3172 3172 3173 3172 3173 3173 3172 3173 3173 3174 3176 3177 3179
3151 3151 3150 3150 3149 3149 3149 3148 3148 3148 3148 3148 3148 3147 3147 3147 3146 3146 3145 3145 3144 3144 3143 3142 3142 3141 3140 3139 3138 3137 3137 3136 3135 3134 3134 3135 3136 3137 3138 3139 3141 3143 3144 3147 3149 3152 3155 3158 3160 3163 3165 3165 3166 3166 3165 3165 3164 3164 3162 3162 3165 3165 3165 3165 3166 3167 3167 3168 3168 3168 3169 3169 3170 3171 3171 3172 3172 3172 3171 3173 3173 3172 3173 3173 3174 3175 3177 3179
3149 3148 3148 3148 3147 3147 3146 3146 3145 3145 3145 3145 3145 3145 3145 3145 3145 3144 3144 3143 3143 3142 3141 3141 3141 3140 3139 3138 3137 3136 3136 3137 3135 3133 3134 3134 3134 3136 3137 3138 3139 3141 3143 3145 3148 3150 3153 3156 3158 3161 3163 3164 3165 3164 3164 3164 3163 3163 3162 3162 3163 3163 3164 3165 3166 3166 3166 3167 3167 3168 3168 3169 3170 3170 3171 3171 3172 3173 3171 3172 3172 3172 3173 3173 3174 3175 3177 3178
3147 3146 3146 3145 3145 3144 3144 3143 3143 3143 3143 3142 3143 3143 3143 3143 3143 3142 3142 3141 3141 3140 3140 3139 3139 3138 3138 3137 3136 3135 3135 3137 3136 3134 3132 3131 3133 3134 3135 3136 3138 3140 3142 3144 3146 3148 3150 3154 3157 3160 3161 3162 3163 3163 3162 3162 3161 3161 3161 3162 3163 3163 3164 3165 3164 3164 3165 3165 3166 3167 3167 3168 3170 3169 3171 3171 3171 3173 3172 3172 3172 3172 3173 3174 3174 3175 3177 3178
3146 3145 3144 3144 3143 3142 3142 3141 3141 3140 3140 3140 3140 3140 3140 3141 3141 3140 3140 3140 3139 3139 3138 3138 3137 3136 3136 3135 3134 3134 3134 3135 3137 3136 3133 3130 3131 3133 3133 3134 3136 3138 3140 3142 3144 3146 3149 3152 3155 3158 3160 3160 3160 3161 3161 3160 3160 3159 3159 3160 3161 3162 3163 3163 3162 3162 3163 3164 3164 3166 3167 3168 3169 3169 3170 3170 3170 3172 3172 3172 3171 3172 3173 3173 3174 3175 3176 3178
3144 3143 3142 3142 3141 3140 3140 3139 3139 3138 3137 3137 3137 3138 3138 3138 3138 3138 3138 3138 3137 3137 3136 3136 3135 3134 3134 3132 3132 3133 3132 3133 3134 3134 3133 3131 3130 3131 3132 3133 3134 3137 3139 3141 3143 3145 3147 3150 3153 3156 3157 3159 3159 3159 3159 3159 3159 3157 3157 3157 3157 3159 3160 3160 3161 3161 3162 3162 3163 3165 3166 3167 3168 3168 3169 3169 3169 3172 3172 3172 3171 3172 3172 3173 3174 3175 3176 3177
3143 3142 3141 3140 3139 3138 3138 3137 3137 3136 3136 3135 3135 3135 3135 3135 3135 3135 3136 3135 3135 3135 3134 3134 3133 3132 3131 3129 3130 3131 3130 3130 3130 3131 3132 3132 3130 3130 3131 3131 3133 3134 3137 3139 3142 3145 3147 3148 3151 3153 3155 3157 3158 3158 3157 3158 3159 3156 3155 3155 3154 3155 3156 3157 3159 3159 3160 3160 3161 3163 3164 3165 3166 3167 3168 3168 3169 3172 3172 3172 3172 3172 3172 3173 3173 3174 3175 3177
3141 3140 3139 3138 3137 3137 3136 3135 3135 3134 3134 3133 3133 3133 3133 3133 3132 3132 3133 3133 3132 3132 3132 3131 3130 3130 3127 3126 3128 3129 3128 3128 3128 3128 3129 3130 3130 3129 3129 3130 3131 3132 3134 3137 3139 3143 3146 3147 3149 3151 3153 3154 3155 3156 3156 3156 3157 3155 3155 3155 3154 3153 3151 3154 3157 3157 3158 3158 3160 3162 3162 3164 3165 3166 3167 3167 3169 3171 3171 3172 3172 3172 3172 3173 3173 3174 3175 3176
3139 3138 3137 3136 3135 3134 3134 3133 3133 3132 3132 3131 3131 3131 3131 3130 3130 3130 3130 3130 3130 3130 3130 3129 3128 3127 3124 3123 3125 3126 3126 3126 3125 3126 3127 3127 3127 3127 3128 3129 3130 3131 3132 3134 3137 3140 3143 3146 3147 3148 3150 3152 3153 3154 3154 3154 3154 3154 3153 3152 3153 3152 3150 3153 3154 3155 3156 3156 3158 3160 3161 3163 3164 3165 3166 3166 3168 3170 3171 3171 3172 3172 3172 3172 3173 3174 3174 3176
3137 3136 3135 3134 3133 3132 3131 3131 3131 3130 3130 3129 3129 3129 3128 3128 3128 3127 3127 3127 3126 3127 3127 3126 3126 3125 3123 3122 3122 3124 3124 3124 3124 3124 3124 3125 3125 3126 3127 3128 3128 3130 3131 3133 3135 3138 3140 3143 3145 3146 3148 3150 3151 3152 3153 3152 3151 3151 3151 3149 3149 3149 3148 3151 3152 3153 3155 3155 3157 3159 3159 3161 3162 3163 3165 3165 3166 3168 3170 3170 3171 3172 3172 3172 3173 3173 3174 3175
3135 3134 3134 3132 3131 3130 3129 3129 3128 3128 3128 3127 3127 3127 3126 3125 3125 3125 3124 3124 3124 3124 3124 3124 3123 3122 3122 3121 3120 3121 3122 3122 3122 3123 3123 3123 3124 3125 3127 3127 3128 3129 3130 3132 3134 3136 3138 3140 3142 3144 3145 3147 3149 3151 3151 3149 3148 3147 3148 3148 3147 3146 3145 3148 3150 3152 3153 3154 3155 3157 3158 3159 3160 3160 3163 3164 3165 3167 3168 3169 3170 3171 3172 3172 3172 3172 3173 3173
3133 3132 3132 3130 3129 3128 3127 3127 3126 3125 3125 3125 3124 3125 3124 3123 3122 3122 3121 3121 3121 3121 3121 3121 3120 3119 3120 3120 3119 3119 3121 3121 3121 3122 3122 3122 3123 3125 3127 3128 3128 3129 3130 3132 3132 3134 3136 3138 3140 3142 3142 3143 3145 3147 3146 3146 3146 3145 3145 3146 3145 3143 3143 3146 3149 3150 3152 3153 3154 3155 3156 3158 3159 3160 3161 3163 3164 3165 3167 3168 3169 3170 3171 3171 3171 3171 3172 3172
3130 3130 3129 3128 3127 3126 3125 3124 3124 3123 3123 3123 3122 3122 3122 3120 3119 3119 3117 3117 3117 3117 3118 3118 3116 3116 3117 3118 3118 3118 3120 3121 3120 3121 3122 3122 3123 3123 3125 3127 3127 3128 3129 3130 3131 3132 3135 3136 3137 3137 3136 3138 3140 3142 3143 3144 3145 3143 3142 3143 3142 3141 3140 3144 3147 3149 3150 3151 3152 3153 3154 3156 3158 3159 3160 3161 3163 3164 3165 3167 3168 3169 3170 3170 3170 3170 3171 3171
3128 3127 3127 3126 3125 3124 3123 3122 3122 3121 3121 3121 3120 3120 3120 3117 3117 3116 3112 3112 3114 3114 3115 3114 3111 3111 3113 3116 3118 3120 3120 3120 3119 3120 3122 3122 3122 3123 3123 3125 3126 3127 3127 3129 3129 3130 3133 3133 3131 3130 3131 3135 3138 3140 3142 3144 3144 3142 3141 3140 3139 3138 3139 3142 3144 3146 3148 3149 3150 3152 3153 3154 3156 3157 3159 3160 3162 3163 3164 3165 3166 3167 3168 3168 3168 3169 3169 3170
3125 3125 3124 3123 3123 3121 3120 3120 3120 3119 3119 3119 3118 3118 3117 3114 3115 3114 3109 3108 3110 3110 3110 3111 3109 3107 3109 3112 3114 3118 3120 3119 3117 3119 3121 3121 3121 3122 3122 3123 3124 3125 3125 3127 3129 3130 3130 3128 3126 3127 3130 3134 3137 3139 3141 3142 3142 3142 3140 3138 3136 3136 3138 3140 3141 3142 3145 3147 3148 3150 3152 3153 3154 3156 3157 3159 3160 3161 3162 3163 3164 3165 3166 3167 3166 3167 3168 3169
3122 3122 3121 3121 3120 3119 3118 3118 3118 3117 3117 3117 3116 3116 3115 3113 3113 3112 3108 3104 3105 3106 3105 3106 3107 3103 3105 3109 3110 3113 3116 3116 3116 3116 3118 3119 3120 3121 3121 3121 3122 3122 3124 3126 3127 3127 3125 3122 3123 3127 3130 3133 3135 3137 3139 3140 3141 3140 3139 3138 3135 3134 3136 3137 3138 3140 3142 3145 3146 3148 3150 3151 3152 3154 3155 3157 3158 3159 3160 3161 3162 3163 3164 3165 3165 3165 3166 3168
3119 3119 3118 3118 3117 3116 3116 3116 3116 3115 3115 3114 3114 3114 3113 3112 3111 3109 3107 3102 3099 3102 3102 3101 3102 3101 3102 3105 3107 3109 3109 3111 3114 3114 3115 3115 3117 3118 3119 3120 3120 3121 3123 3122 3122 3122 3120 3118 3122 3127 3129 3131 3132 3134 3136 3137 3138 3138 3137 3136 3134 3134 3134 3134 3135 3137 3140 3143 3145 3146 3148 3149 3149 3151 3153 3155 3157 3158 3158 3160 3161 3162 3162 3163 3164 3164 3165 3166
3116 3116 3115 3115 3115 3113 3112 3113 3113 3113 3112 3112 3112 3112 3111 3111 3110 3108 3106 3101 3095 3096 3099 3098 3097 3097 3098 3101 3104 3104 3104 3106 3110 3112 3113 3113 3114 3116 3117 3118 3119 3119 3120 3120 3120 3119 3117 3119 3122 3125 3126 3128 3129 3131 3133 3134 3134 3135 3134 3134 3133 3134 3133 3133 3133 3136 3139 3142 3144 3146 3146 3146 3147 3148 3149 3152 3154 3156 3156 3158 3159 3160 3161 3162 3163 3163 3163 3164
3113 3112 3112 3112 3112 3111 3109 3110 3111 3110 3110 3109 3109 3110 3110 3109 3109 3106 3104 3100 3093 3092 3095 3094 3093 3093 3095 3098 3099 3099 3102 3103 3104 3107 3111 3110 3111 3114 3115 3116 3117 3116 3117 3118 3119 3117 3116 3119 3121 3122 3123 3125 3126 3127 3128 3130 3131 3131 3131 3132 3132 3132 3132 3132 3132 3134 3138 3139 3141 3144 3143 3142 3145 3146 3146 3148 3150 3152 3154 3155 3156 3157 3158 3160 3161 3162 3161 3162
3109 3109 3109 3109 3108 3108 3107 3106 3108 3108 3106 3107 3107 3107 3108 3107 3107 3106 3104 3100 3092 3089 3090 3089 3089 3090 3091 3092 3093 3097 3101 3100 3099 3103 3107 3107 3109 3111 3112 3113 3113 3114 3115 3117 3117 3115 3114 3117 3119 3119 3120 3122 3123 3123 3124 3127 3128 3126 3127 3130 3131 3130 3130 3130 3130 3131 3134 3135 3138 3140 3140 3139 3141 3143 3144 3145 3147 3150 3151 3152 3153 3154 3155 3156 3158 3159 3160 3160
3106 3105 3106 3106 3105 3105 3105 3103 3104 3105 3104 3104 3105 3106 3106 3106 3107 3105 3105 3102 3091 3085 3085 3085 3086 3087 3088 3090 3090 3094 3097 3095 3096 3098 3101 3103 3105 3107 3109 3110 3111 3110 3113 3115 3113 3110 3111 3114 3115 3115 3117 3118 3118 3118 3120 3124 3124 3122 3125 3129 3129 3129 3129 3128 3128 3128 3130 3132 3134 3136 3138 3138 3138 3139 3142 3143 3144 3146 3148 3149 3151 3152 3153 3154 3155 3156 3158 3158
3103 3101 3101 3103 3102 3100 3103 3102 3100 3102 3102 3102 3104 3104 3104 3104 3106 3105 3107 3104 3091 3084 3083 3082 3084 3084 3087 3090 3088 3089 3091 3092 3094 3093 3095 3100 3102 3104 3104 3105 3108 3109 3110 3111 3107 3107 3109 3110 3111 3112 3113 3113 3112 3114 3118 3121 3120 3121 3125 3126 3126 3128 3128 3128 3127 3125 3126 3128 3128 3131 3135 3135 3135 3136 3139 3140 3141 3143 3144 3146 3148 3149 3150 3151 3152 3154 3155 3156
3099 3097 3097 3100 3099 3097 3099 3098 3097 3099 3099 3100 3102 3102 3102 3104 3104 3104 3108 3101 3086 3082 3083 3081 3083 3083 3086 3088 3086 3087 3089 3091 3093 3090 3093 3097 3098 3100 3101 3102 3105 3107 3108 3108 3105 3106 3107 3107 3109 3110 3108 3108 3110 3113 3117 3118 3118 3121 3124 3124 3124 3125 3126 3127 3125 3124 3124 3122 3121 3125 3131 3132 3132 3134 3136 3137 3137 3139 3141 3143 3144 3146 3147 3148 3149 3151 3153 3154
3095 3094 3093 3095 3096 3095 3095 3095 3094 3095 3096 3097 3099 3100 3100 3101 3102 3104 3104 3094 3082 3082 3081 3079 3082 3083 3084 3086 3085 3085 3087 3089 3091 3091 3092 3095 3096 3097 3099 3101 3103 3104 3105 3105 3104 3104 3104 3105 3106 3105 3105 3107 3110 3112 3114 3115 3117 3120 3122 3122 3123 3122 3122 3122 3121 3122 3120 3115 3116 3121 3126 3129 3129 3129 3132 3133 3133 3136 3137 3139 3141 3142 3144 3145 3146 3147 3150 3151
3091 3091 3089 3090 3091 3092 3092 3092 3090 3092 3094 3094 3096 3098 3098 3099 3101 3100 3093 3084 3081 3081 3078 3077 3081 3081 3081 3083 3083 3083 3085 3087 3089 3089 3089 3092 3093 3093 3096 3098 3099 3100 3101 3100 3100 3101 3101 3101 3101 3101 3103 3106 3108 3109 3110 3112 3116 3118 3118 3119 3121 3120 3119 3116 3116 3117 3114 3112 3116 3119 3121 3123 3121 3122 3127 3128 3130 3132 3133 3134 3136 3137 3139 3141 3142 3144 3146 3147
3087 3087 3086 3085 3086 3088 3090 3088 3087 3090 3091 3091 3094 3094 3096 3098 3095 3088 3083 3081 3081 3077 3075 3077 3078 3078 3078 3079 3080 3080 3082 3084 3086 3086 3086 3088 3088 3088 3089 3090 3092 3094 3094 3095 3096 3097 3097 3097 3097 3099 3100 3102 3104 3105 3107 3109 3111 3112 3113 3116 3117 3116 3116 3114 3113 3112 3110 3110 3114 3117 3118 3115 3112 3116 3122 3124 3125 3128 3129 3131 3132 3133 3135 3136 3138 3140 3142 3144
3083 3082 3083 3082 3081 3083 3086 3085 3085 3087 3087 3089 3091 3090 3095 3094 3081 3074 3078 3080 3077 3073 3074 3076 3075 3076 3077 3077 3077 3079 3079 3081 3083 3083 3084 3085 3085 3085 3085 3086 3088 3088 3089 3091 3093 3092 3093 3093 3095 3096 3096 3097 3099 3100 3101 3102 3104 3106 3107 3110 3111 3110 3112 3114 3113 3109 3106 3108 3111 3114 3113 3109 3107 3112 3116 3119 3122 3124 3125 3127 3129 3131 3131 3132 3134 3137 3139 3140
3079 3078 3079 3079 3078 3079 3081 3082 3082 3083 3085 3087 3087 3089 3090 3081 3068 3069 3074 3074 3073 3073 3074 3074 3074 3075 3074 3074 3075 3075 3076 3077 3079 3081 3081 3081 3081 3081 3081 3083 3085 3086 3087 3088 3087 3087 3088 3087 3088 3090 3091 3093 3094 3094 3096 3099 3101 3103 3105 3108 3107 3105 3108 3110 3109 3106 3104 3106 3109 3110 3106 3104 3105 3107 3110 3114 3118 3120 3122 3124 3126 3127 3128 3129 3132 3134 3135 3137
3075 3074 3074 3076 3076 3075 3076 3078 3078 3080 3082 3082 3084 3084 3078 3066 3063 3069 3070 3070 3072 3071 3071 3073 3074 3072 3071 3071 3072 3072 3073 3073 3075 3077 3076 3076 3075 3075 3076 3077 3079 3082 3084 3083 3082 3083 3083 3081 3083 3087 3088 3089 3090 3092 3097 3099 3099 3100 3104 3105 3101 3102 3105 3105 3104 3103 3104 3105 3105 3103 3100 3101 3104 3105 3107 3111 3113 3116 3119 3120 3123 3124 3125 3128 3128 3129 3131 3133
3071 3071 3071 3072 3072 3071 3072 3073 3075 3077 3077 3079 3079 3073 3062 3059 3065 3068 3068 3070 3071 3070 3070 3070 3070 3069 3067 3066 3067 3068 3069 3069 3070 3071 3070 3071 3071 3070 3072 3072 3074 3076 3078 3078 3078 3078 3078 3077 3081 3083 3084 3086 3088 3091 3094 3095 3094 3096 3098 3096 3096 3102 3104 3103 3102 3101 3102 3102 3100 3098 3097 3098 3101 3102 3104 3107 3109 3112 3115 3117 3120 3121 3123 3125 3124 3125 3128 3129
3067 3067 3068 3069 3067 3067 3068 3069 3072 3073 3073 3074 3070 3060 3056 3059 3063 3065 3066 3068 3069 3069 3069 3065 3063 3064 3062 3061 3061 3063 3065 3065 3065 3065 3064 3065 3065 3065 3067 3068 3070 3071 3073 3075 3075 3074 3074 3074 3076 3078 3079 3082 3087 3089 3091 3091 3091 3090 3089 3090 3095 3101 3100 3100 3100 3097 3097 3097 3095 3095 3095 3095 3097 3098 3100 3104 3106 3109 3111 3114 3117 3118 3120 3121 3121 3120 3122 3125
3062 3063 3066 3066 3063 3063 3064 3065 3067 3069 3069 3068 3060 3053 3055 3058 3059 3062 3064 3064 3065 3066 3065 3061 3059 3059 3058 3057 3056 3058 3060 3059 3059 3060 3060 3059 3058 3059 3062 3064 3065 3067 3069 3073 3073 3073 3073 3071 3071 3073 3075 3078 3084 3087 3086 3085 3085 3084 3084 3088 3092 3091 3091 3095 3096 3092 3091 3093 3092 3092 3092 3093 3094 3095 3097 3100 3102 3104 3108 3110 3113 3115 3116 3117 3118 3116 3117 3121
3058 3059 3062 3064 3063 3062 3062 3062 3063 3065 3064 3060 3054 3051 3053 3053 3054 3058 3059 3059 3061 3061 3060 3057 3057 3055 3054 3053 3053 3054 3054 3054 3054 3055 3054 3053 3053 3054 3057 3059 3061 3063 3065 3069 3070 3070 3071 3070 3068 3069 3072 3075 3078 3078 3076 3076 3079 3082 3084 3086 3086 3084 3086 3089 3090 3089 3089 3090 3091 3090 3088 3088 3090 3092 3094 3096 3098 3101 3103 3106 3109 3111 3113 3114 3116 3114 3114 3118
3055 3056 3058 3062 3063 3061 3059 3060 3060 3060 3057 3053 3050 3050 3051 3052 3053 3055 3056 3056 3056 3055 3055 3054 3054 3053 3050 3050 3050 3050 3049 3049 3050 3050 3049 3049 3050 3050 3052 3055 3056 3059 3062 3065 3066 3067 3068 3068 3066 3065 3068 3069 3067 3067 3068 3072 3076 3080 3080 3079 3079 3080 3083 3086 3086 3086 3086 3086 3087 3087 3084 3083 3087 3090 3091 3092 3094 3097 3100 3103 3105 3108 3110 3112 3114 3113 3111 3114
3053 3053 3056 3060 3061 3059 3058 3058 3057 3056 3053 3049 3048 3048 3049 3050 3051 3051 3054 3055 3053 3051 3050 3050 3050 3049 3048 3047 3047 3046 3046 3044 3044 3044 3043 3045 3046 3046 3047 3050 3053 3056 3058 3059 3061 3063 3064 3065 3065 3063 3061 3060 3061 3063 3068 3072 3074 3075 3075 3074 3074 3076 3079 3082 3081 3080 3082 3082 3083 3084 3081 3080 3084 3087 3088 3090 3092 3094 3097 3101 3101 3104 3107 3107 3109 3112 3110 3110
3049 3049 3052 3056 3055 3053 3055 3054 3053 3052 3050 3047 3046 3047 3047 3047 3047 3047 3049 3050 3050 3048 3048 3046 3045 3045 3044 3044 3043 3044 3043 3041 3039 3038 3037 3039 3041 3042 3044 3047 3049 3052 3053 3053 3055 3058 3061 3062 3061 3059 3057 3057 3060 3063 3066 3068 3071 3072 3071 3071 3073 3073 3073 3073 3073 3075 3076 3076 3079 3081 3078 3077 3082 3085 3085 3088 3090 3091 3094 3097 3098 3100 3102 3102 3105 3109 3107 3107
3044 3043 3047 3051 3050 3049 3050 3048 3048 3048 3045 3044 3044 3044 3044 3044 3043 3044 3045 3046 3045 3045 3045 3043 3041 3041 3041 3041 3040 3040 3040 3038 3035 3034 3033 3034 3037 3039 3042 3044 3046 3047 3049 3049 3051 3055 3058 3057 3056 3057 3057 3056 3058 3060 3062 3064 3067 3067 3065 3066 3068 3067 3067 3067 3068 3071 3072 3070 3073 3076 3074 3075 3080 3083 3084 3086 3088 3089 3091 3094 3096 3097 3098 3099 3102 3104 3103 3104
3039 3038 3041 3045 3046 3046 3044 3042 3043 3043 3041 3041 3041 3040 3040 3040 3040 3040 3041 3041 3042 3042 3041 3039 3039 3039 3039 3038 3037 3036 3036 3035 3032 3031 3032 3031 3031 3034 3038 3040 3042 3043 3044 3045 3047 3050 3051 3051 3052 3052 3053 3054 3053 3052 3054 3058 3060 3061 3061 3062 3063 3064 3066 3067 3067 3069 3068 3066 3069 3071 3069 3072 3077 3080 3082 3084 3086 3088 3089 3091 3093 3095 3096 3098 3099 3100 3100 3101
3035 3034 3036 3038 3041 3041 3039 3038 3040 3039 3039 3039 3037 3035 3035 3034 3034 3036 3038 3038 3038 3038 3037 3035 3036 3036 3036 3036 3035 3033 3033 3033 3031 3030 3029 3028 3027 3029 3033 3035 3037 3039 3041 3042 3043 3045 3045 3046 3047 3045 3044 3046 3046 3043 3045 3052 3056 3057 3058 3059 3060 3062 3064 3065 3066 3065 3062 3063 3067 3067 3065 3069 3073 3076 3079 3082 3084 3085 3086 3088 3091 3093 3095 3097 3096 3096 3098 3099
3034 3032 3033 3034 3036 3037 3036 3036 3037 3035 3035 3034 3030 3028 3028 3026 3026 3027 3029 3030 3031 3034 3034 3033 3034 3034 3032 3032 3031 3029 3029 3029 3030 3029 3028 3027 3025 3026 3028 3030 3032 3035 3036 3036 3038 3041 3042 3041 3042 3041 3039 3040 3042 3042 3045 3050 3052 3052 3054 3055 3057 3058 3059 3061 3062 3060 3059 3062 3063 3063 3065 3067 3070 3072 3075 3079 3082 3083 3084 3086 3089 3091 3093 3096 3095 3094 3097 3099
3033 3031 3031 3032 3032 3032 3031 3032 3033 3031 3030 3028 3025 3023 3023 3023 3022 3021 3022 3023 3024 3026 3024 3023 3026 3028 3029 3030 3029 3027 3026 3026 3027 3026 3026 3025 3024 3024 3026 3027 3028 3030 3032 3033 3034 3037 3038 3036 3036 3038 3038 3039 3041 3043 3045 3047 3047 3048 3050 3052 3053 3055 3056 3056 3055 3055 3058 3060 3058 3060 3064 3065 3067 3071 3073 3075 3078 3080 3082 3084 3086 3088 3090 3093 3094 3094 3096 3099
3030 3028 3029 3030 3029 3027 3027 3027 3027 3027 3025 3024 3023 3021 3020 3020 3020 3020 3020 3019 3019 3019 3017 3015 3015 3016 3018 3022 3024 3024 3024 3023 3023 3024 3025 3025 3024 3023 3023 3023 3024 3025 3028 3031 3033 3035 3036 3033 3033 3035 3036 3038 3040 3041 3042 3043 3044 3046 3047 3048 3050 3052 3052 3052 3051 3053 3056 3056 3055 3058 3062 3063 3065 3069 3071 3073 3076 3078 3081 3082 3084 3086 3087 3090 3093 3092 3093 3096
3028 3026 3026 3027 3025 3024 3023 3023 3023 3022 3022 3022 3020 3019 3018 3018 3017 3018 3017 3015 3014 3016 3017 3014 3009 3007 3008 3010 3014 3017 3018 3017 3017 3018 3020 3023 3023 3022 3021 3021 3021 3022 3026 3029 3031 3033 3034 3031 3032 3033 3033 3035 3037 3038 3039 3040 3041 3042 3043 3044 3046 3047 3049 3049 3049 3050 3052 3053 3054 3057 3059 3060 3063 3067 3068 3071 3074 3077 3080 3080 3082 3084 3086 3088 3090 3089 3091 3094
3025 3024 3023 3022 3021 3020 3020 3020 3020 3020 3019 3019 3018 3017 3017 3015 3014 3015 3015 3014 3012 3011 3012 3011 3007 3006 3008 3009 3011 3013 3013 3012 3012 3011 3011 3013 3014 3017 3019 3019 3019 3019 3023 3026 3028 3030 3030 3029 3031 3032 3031 3031 3032 3034 3037 3038 3038 3038 3038 3041 3043 3043 3044 3045 3046 3047 3049 3050 3052 3055 3056 3056 3060 3064 3066 3068 3070 3074 3077 3078 3080 3082 3084 3086 3087 3088 3090 3091
3022 3021 3021 3019 3017 3017 3017 3017 3018 3017 3016 3016 3015 3015 3015 3013 3012 3012 3010 3011 3011 3008 3009 3011 3008 3006 3007 3008 3009 3009 3008 3007 3008 3007 3006 3006 3006 3009 3012 3014 3016 3016 3019 3024 3026 3027 3027 3027 3029 3031 3029 3027 3028 3031 3032 3035 3037 3037 3034 3035 3037 3038 3038 3040 3042 3045 3047 3048 3050 3052 3052 3053 3057 3062 3064 3065 3067 3069 3072 3075 3077 3079 3080 3082 3084 3085 3086 3087
3020 3019 3019 3017 3013 3013 3015 3014 3014 3014 3013 3013 3013 3013 3012 3011 3011 3011 3007 3005 3007 3008 3008 3009 3007 3005 3005 3004 3004 3006 3005 3004 3003 3003 3003 3002 3002 3003 3004 3006 3010 3013 3016 3020 3022 3023 3025 3025 3026 3028 3026 3024 3027 3028 3029 3033 3035 3030 3027 3029 3032 3035 3037 3038 3040 3042 3044 3046 3047 3047 3048 3051 3055 3058 3061 3063 3065 3065 3068 3071 3073 3075 3077 3079 3080 3082 3083 3085